Regional Weather Roundup
Issued by NWS Cleveland, OH

Home | Current Version | Previous Version | Graphics & Text | Print | Product List | Glossary On
Versions: 1 2 3 4 5 6 7 8 9 10 11 12 13 14 15 16 17 18 19 20 21 22 23 24 25 26 27 28 29 30 31 32 33 34 35 36 37 38 39 40 41 42 43 44 45 46 47 48 49 50
000
ASUS41 KCLE 282112
RWRCLE
OHIO REGIONAL WEATHER ROUNDUP
NATIONAL WEATHER SERVICE WILMINGTON, OH
500 PM EDT THU JUL 28 2016

NOTE: "FAIR" INDICATES FEW OR NO CLOUDS BELOW 12,000 FEET WITH NO
SIGNIFICANT WEATHER AND/OR OBSTRUCTIONS TO VISIBILITY.

OHZ001>008-015>018-024>027-034-035-043-044-282200-
   NORTHWEST OHIO

CITY           SKY/WX    TMP DP  RH WIND       PRES   REMARKS
DEFIANCE       FAIR      87  65  47 NE5       29.87F
FINDLAY        CLOUDY    86  65  49 NE6       29.85F
TOLEDO EXPRESS CLOUDY    83  68  60 E6        29.86F
TOLEDO EXEC    FAIR      84  70  62 NE7       29.88F
LIMA           FAIR      85  65  51 E5        29.87S
$$

OHZ009>014-019>023-028>033-038-089-282200-
   NORTHEAST OHIO

CITY           SKY/WX    TMP DP  RH WIND       PRES   REMARKS
CLE-HOPKINS    CLOUDY    85  57  38 N9        29.89S
CLE-LAKEFRONT  FAIR      81  70  69 N10       29.86S
CUY CO. ARPT   CLOUDY    84  68  58 N10       29.88F
LORAIN-ELYRIA  FAIR      83  64  52 NE8       29.88S
ASHTABULA      FAIR      79  70  74 NE5       29.88F
AKRON-CANTON   CLOUDY    78  67  68 SW8       29.89F
WOOSTER        FAIR      77  69  76 S7        29.89F
MANSFIELD      FAIR      84  65  52 E5        29.89S
YOUNGSTOWN     CLOUDY    77  66  68 S9        29.89F
$$

OHZ042-051>053-060>062-070>072-077>081-282200-
  SOUTHWEST OHIO

CITY           SKY/WX    TMP DP  RH WIND       PRES   REMARKS
CINC-COVINGTON PTSUNNY   81  71  71 CALM      29.87F
CINC-LUNKEN    FAIR      81  72  74 SW5       29.86F
HAMILTON       CLOUDY    81  71  71 SE3       29.87F
DAYTON         PTSUNNY   84  65  52 S5        29.87F
WRIGHT-PAT AFB PTSUNNY   84  69  59 CALM      29.85
DAYTON GENERAL FAIR      84  68  58 VRB6      29.86F
WILMINGTON     PTSUNNY   80  71  74 SW6       29.88F
$$

OHZ036-037-039>041-045>050-054>059-063>069-073>076-082>088-282200-
  CENTRAL AND SOUTHEAST OHIO

CITY           SKY/WX    TMP DP  RH WIND       PRES   REMARKS
COLUMBUS       CLOUDY    80  70  71 S6        29.86F
OSU AIRPORT    CLOUDY    83  71  67 CALM      29.86F
BOLTON FIELD     N/A     81  73  78 CALM        N/A
RICKENBACK AFB FAIR      80  71  75 S5        29.86F
NEWARK         FAIR      79  71  76 S6        29.87S
MARION         FAIR      83  69  62 S5        29.87F
LANCASTER      FAIR      79  73  82 VRB5      29.88F
ZANESVILLE     CLOUDY    76  72  87 S3        29.89R
NEW PHILLY     PTSUNNY   75  67  76 SE5       29.89F
$$




USA.gov is the U.S. government's official web portal to all federal, state and local government web resources and services.